Total_Precipitation_Accumulation
0.08 0.08 0.10 0.13 0.11 0.08 0.03 0.01 0.01 0.01 0.01 0.01 0.01 0.01 0.01 0.02 0.05 0.12 0.14 0.15 0.17 0.15 0.21 0.36 0.57 0.64 0.73 0.81 0.86 0.81 0.73 0.66 0.65 0.61 0.57 0.58 0.61 0.66 0.74 0.78 0.83 0.89 0.99 0.98 0.91 1.01 1.03 1.02 0.94
0.08 0.11 0.15 0.16 0.10 0.06 0.02 0.01 0.02 0.02 0.01 0.01 0.01 0.01 0.01 0.02 0.03 0.08 0.15 0.17 0.18 0.17 0.19 0.29 0.52 0.64 0.73 0.75 0.73 0.77 0.75 0.69 0.63 0.56 0.57 0.60 0.65 0.68 0.74 0.81 0.86 0.87 1.01 0.98 0.96 1.00 0.94 0.91 0.84
0.13 0.17 0.19 0.18 0.09 0.03 0.02 0.02 0.02 0.02 0.02 0.02 0.01 0.02 0.03 0.04 0.05 0.08 0.13 0.17 0.21 0.21 0.25 0.38 0.52 0.67 0.75 0.75 0.72 0.73 0.78 0.72 0.66 0.59 0.60 0.62 0.64 0.68 0.71 0.72 0.77 0.81 0.92 0.90 0.87 0.91 0.85 0.80 0.77
0.22 0.27 0.21 0.15 0.06 0.02 0.02 0.03 0.02 0.03 0.03 0.02 0.02 0.04 0.05 0.04 0.05 0.07 0.13 0.17 0.22 0.22 0.28 0.42 0.55 0.70 0.75 0.76 0.80 0.81 0.81 0.79 0.71 0.68 0.66 0.65 0.66 0.66 0.65 0.64 0.61 0.66 0.71 0.74 0.77 0.80 0.78 0.73 0.67
0.27 0.29 0.22 0.12 0.05 0.03 0.02 0.03 0.03 0.03 0.03 0.03 0.03 0.05 0.08 0.07 0.06 0.09 0.14 0.18 0.24 0.29 0.31 0.43 0.61 0.77 0.79 0.81 0.81 0.83 0.85 0.87 0.78 0.75 0.76 0.72 0.67 0.67 0.63 0.56 0.54 0.57 0.57 0.59 0.68 0.76 0.78 0.75 0.66
0.33 0.29 0.19 0.10 0.05 0.03 0.03 0.04 0.05 0.04 0.03 0.03 0.03 0.06 0.10 0.11 0.11 0.15 0.17 0.22 0.28 0.34 0.40 0.50 0.70 0.87 0.86 0.88 0.86 0.89 0.92 0.96 0.88 0.85 0.87 0.83 0.81 0.75 0.69 0.61 0.56 0.55 0.53 0.53 0.58 0.68 0.82 0.80 0.67
0.33 0.28 0.14 0.08 0.07 0.05 0.04 0.05 0.06 0.07 0.06 0.04 0.03 0.07 0.13 0.14 0.14 0.18 0.23 0.28 0.36 0.41 0.48 0.59 0.76 0.94 0.95 0.90 0.96 0.99 0.98 1.04 0.99 0.97 0.95 0.84 0.79 0.76 0.76 0.73 0.67 0.63 0.60 0.56 0.56 0.61 0.78 0.80 0.70
0.34 0.36 0.18 0.08 0.07 0.07 0.05 0.07 0.06 0.10 0.09 0.06 0.05 0.07 0.12 0.13 0.16 0.24 0.34 0.41 0.46 0.50 0.62 0.75 0.89 1.14 1.16 0.94 0.91 0.99 1.00 1.07 1.05 0.99 0.87 0.72 0.71 0.74 0.72 0.66 0.65 0.65 0.64 0.61 0.55 0.55 0.66 0.70 0.67
0.44 0.46 0.24 0.11 0.08 0.09 0.06 0.07 0.08 0.10 0.11 0.09 0.08 0.07 0.08 0.12 0.22 0.32 0.43 0.49 0.56 0.62 0.78 0.96 1.09 1.24 1.26 1.08 0.92 1.03 1.06 1.10 1.05 0.95 0.80 0.70 0.70 0.68 0.63 0.53 0.55 0.62 0.66 0.63 0.60 0.59 0.62 0.63 0.56
0.59 0.44 0.24 0.13 0.09 0.09 0.08 0.10 0.11 0.12 0.13 0.13 0.11 0.10 0.12 0.19 0.31 0.39 0.42 0.49 0.56 0.68 0.91 1.05 1.25 1.32 1.27 1.13 1.05 1.13 1.10 1.10 1.00 0.82 0.81 0.83 0.82 0.79 0.68 0.59 0.53 0.60 0.64 0.67 0.71 0.70 0.65 0.58 0.52
0.53 0.36 0.19 0.12 0.11 0.12 0.11 0.12 0.15 0.15 0.17 0.14 0.12 0.14 0.19 0.29 0.37 0.43 0.47 0.52 0.59 0.72 0.92 1.14 1.39 1.57 1.43 1.26 1.18 1.20 1.18 1.15 1.09 0.97 0.89 0.95 1.00 0.93 0.84 0.75 0.70 0.65 0.61 0.64 0.68 0.71 0.61 0.60 0.70
0.47 0.28 0.16 0.14 0.14 0.18 0.17 0.14 0.15 0.19 0.19 0.16 0.16 0.20 0.29 0.31 0.36 0.40 0.50 0.63 0.73 0.81 0.95 1.19 1.42 1.63 1.63 1.47 1.36 1.25 1.14 1.12 1.10 1.12 1.04 1.02 0.98 0.85 0.77 0.69 0.65 0.65 0.62 0.62 0.62 0.63 0.63 0.62 0.65
0.42 0.31 0.20 0.15 0.16 0.19 0.20 0.20 0.17 0.17 0.16 0.18 0.25 0.31 0.33 0.32 0.35 0.40 0.49 0.60 0.69 0.79 0.90 1.16 1.33 1.50 1.64 1.69 1.59 1.45 1.27 1.13 1.08 1.13 1.15 1.09 0.98 0.89 0.78 0.69 0.67 0.62 0.59 0.59 0.58 0.53 0.55 0.60 0.63
0.38 0.31 0.27 0.21 0.20 0.22 0.23 0.21 0.20 0.19 0.18 0.23 0.26 0.30 0.36 0.35 0.34 0.39 0.47 0.52 0.59 0.67 0.77 0.98 1.24 1.39 1.59 1.60 1.59 1.56 1.47 1.35 1.27 1.20 1.14 1.22 1.13 1.00 0.88 0.76 0.70 0.67 0.61 0.57 0.58 0.54 0.56 0.57 0.58
0.39 0.40 0.34 0.27 0.24 0.26 0.29 0.28 0.22 0.19 0.20 0.24 0.27 0.31 0.37 0.39 0.40 0.43 0.47 0.46 0.51 0.61 0.73 0.87 1.04 1.22 1.35 1.42 1.49 1.52 1.45 1.41 1.31 1.21 1.17 1.22 1.29 1.15 1.05 0.96 0.86 0.76 0.72 0.71 0.74 0.70 0.70 0.69 0.69
0.52 0.58 0.50 0.30 0.23 0.28 0.42 0.35 0.22 0.21 0.21 0.23 0.26 0.32 0.37 0.37 0.40 0.48 0.54 0.51 0.53 0.59 0.67 0.80 0.92 1.11 1.27 1.39 1.45 1.50 1.49 1.46 1.34 1.27 1.25 1.22 1.27 1.31 1.25 1.16 1.06 0.91 0.85 0.86 0.84 0.85 0.85 0.77 0.77
0.77 0.63 0.46 0.32 0.24 0.29 0.43 0.36 0.22 0.23 0.23 0.22 0.25 0.28 0.32 0.35 0.39 0.47 0.51 0.50 0.52 0.54 0.60 0.73 0.83 0.91 1.10 1.43 1.59 1.56 1.61 1.62 1.49 1.40 1.41 1.31 1.25 1.23 1.25 1.24 1.18 1.06 0.97 0.98 0.96 0.86 0.85 0.85 0.87
0.64 0.46 0.35 0.31 0.27 0.31 0.37 0.28 0.21 0.23 0.23 0.22 0.24 0.28 0.32 0.34 0.36 0.42 0.48 0.49 0.54 0.59 0.62 0.69 0.85 1.00 1.12 1.36 1.67 1.77 1.66 1.68 1.69 1.52 1.45 1.40 1.40 1.32 1.26 1.26 1.21 1.17 1.14 1.10 1.08 1.00 0.94 0.91 0.93
0.48 0.44 0.36 0.27 0.27 0.40 0.36 0.26 0.23 0.23 0.24 0.25 0.25 0.24 0.29 0.32 0.36 0.44 0.48 0.51 0.56 0.63 0.67 0.67 0.76 0.98 1.16 1.28 1.44 1.62 1.59 1.59 1.70 1.70 1.58 1.52 1.41 1.36 1.31 1.22 1.21 1.17 1.13 1.09 1.11 1.10 1.06 1.00 1.00
0.59 0.56 0.41 0.30 0.27 0.42 0.43 0.32 0.24 0.22 0.26 0.27 0.26 0.24 0.26 0.32 0.37 0.44 0.50 0.55 0.56 0.62 0.70 0.70 0.69 0.82 0.99 1.11 1.26 1.52 1.66 1.73 1.88 1.89 1.80 1.76 1.55 1.38 1.32 1.28 1.24 1.21 1.20 1.14 1.09 1.11 1.14 1.12 1.09
0.67 0.57 0.44 0.43 0.39 0.45 0.49 0.42 0.27 0.24 0.25 0.26 0.26 0.24 0.26 0.32 0.38 0.43 0.50 0.55 0.60 0.61 0.64 0.69 0.68 0.73 0.89 1.10 1.29 1.50 1.78 1.84 1.92 1.95 1.85 1.87 1.81 1.54 1.39 1.31 1.30 1.26 1.24 1.19 1.12 1.07 1.11 1.21 1.23
0.63 0.43 0.42 0.52 0.71 0.71 0.59 0.64 0.34 0.26 0.25 0.27 0.26 0.24 0.29 0.35 0.39 0.46 0.52 0.55 0.64 0.64 0.64 0.66 0.69 0.72 0.83 1.04 1.23 1.27 1.41 1.52 1.49 1.56 1.66 1.78 1.92 1.79 1.51 1.35 1.29 1.24 1.24 1.21 1.20 1.12 1.09 1.15 1.19
0.50 0.38 0.49 0.61 0.83 0.83 0.59 0.67 0.40 0.29 0.31 0.29 0.28 0.25 0.29 0.34 0.43 0.50 0.52 0.54 0.65 0.68 0.66 0.67 0.73 0.74 0.80 0.97 1.13 1.23 1.26 1.32 1.41 1.43 1.47 1.58 1.71 1.78 1.68 1.48 1.41 1.32 1.27 1.21 1.20 1.19 1.13 1.11 1.10
0.57 0.65 0.81 0.91 1.23 1.25 0.51 0.50 0.44 0.38 0.37 0.34 0.32 0.29 0.29 0.34 0.48 0.53 0.55 0.60 0.69 0.72 0.72 0.72 0.75 0.78 0.77 0.86 1.02 1.15 1.19 1.26 1.38 1.40 1.33 1.36 1.49 1.60 1.63 1.55 1.42 1.36 1.30 1.26 1.23 1.21 1.14 1.12 1.10
0.97 1.42 2.02 2.12 1.92 1.07 0.32 0.36 0.44 0.41 0.40 0.44 0.41 0.35 0.30 0.37 0.46 0.48 0.53 0.63 0.71 0.76 0.73 0.71 0.73 0.82 0.83 0.89 0.94 0.99 1.09 1.18 1.27 1.35 1.36 1.37 1.39 1.47 1.54 1.56 1.48 1.37 1.35 1.31 1.31 1.31 1.21 1.16 1.15
0.97 1.21 1.55 1.55 1.07 0.54 0.29 0.33 0.36 0.34 0.33 0.37 0.39 0.36 0.33 0.35 0.41 0.44 0.45 0.51 0.63 0.75 0.80 0.75 0.69 0.72 0.82 0.92 0.92 0.95 1.04 1.15 1.15 1.18 1.27 1.33 1.34 1.39 1.51 1.54 1.50 1.44 1.45 1.46 1.44 1.46 1.41 1.34 1.26
0.99 0.96 0.81 1.07 0.81 0.59 0.41 0.32 0.27 0.21 0.23 0.34 0.39 0.38 0.39 0.36 0.39 0.40 0.40 0.43 0.48 0.57 0.67 0.76 0.74 0.72 0.73 0.85 0.96 0.95 1.02 1.11 1.12 1.09 1.12 1.16 1.16 1.21 1.32 1.45 1.50 1.53 1.52 1.53 1.58 1.59 1.53 1.52 1.47
0.79 0.94 1.11 1.50 1.37 0.81 0.43 0.34 0.37 0.28 0.26 0.33 0.43 0.44 0.48 0.46 0.42 0.38 0.36 0.40 0.43 0.47 0.51 0.65 0.78 0.78 0.78 0.80 0.91 0.97 0.99 1.06 1.13 1.14 1.11 1.14 1.19 1.21 1.21 1.27 1.33 1.40 1.47 1.51 1.55 1.57 1.58 1.61 1.59
0.74 1.02 1.36 1.45 1.19 0.93 0.58 0.43 0.42 0.35 0.31 0.35 0.45 0.51 0.54 0.54 0.52 0.46 0.39 0.39 0.42 0.49 0.55 0.57 0.69 0.79 0.83 0.79 0.82 0.91 1.00 1.02 1.13 1.21 1.20 1.17 1.24 1.30 1.29 1.27 1.26 1.24 1.28 1.40 1.52 1.57 1.59 1.62 1.58
0.64 0.79 1.07 1.45 1.13 0.77 0.66 0.46 0.33 0.30 0.31 0.35 0.42 0.50 0.52 0.51 0.49 0.47 0.41 0.42 0.45 0.52 0.57 0.58 0.66 0.72 0.79 0.83 0.84 0.87 0.98 1.03 1.09 1.16 1.24 1.23 1.24 1.29 1.29 1.29 1.26 1.16 1.14 1.22 1.33 1.40 1.46 1.52 1.50